Time,TemperatureF,DewpointF,PressureIn,WindDirection,WindDirectionDegrees,WindSpeedMPH,WindSpeedGustMPH,Humidity,HourlyPrecipIn,Conditions,Clouds,dailyrainin,SoftwareType,DateUTC
2013-10-02 00:01:00,69.1,51.8,29.81,NNW,328,0.0,0.0,54,0.00,,,0.00,Wunderground v.1.15,2013-10-02 07:01:00,
2013-10-02 00:06:00,68.6,52.8,29.81,WSW,252,0.0,1.0,57,0.00,,,0.00,Wunderground v.1.15,2013-10-02 07:06:00,
2013-10-02 00:11:00,68.3,52.9,29.80,South,177,0.0,0.0,58,0.00,,,0.00,Wunderground v.1.15,2013-10-02 07:11:00,
2013-10-02 00:16:00,68.1,52.3,29.81,South,177,0.0,0.0,57,0.00,,,0.00,Wunderground v.1.15,2013-10-02 07:16:00,
2013-10-02 00:21:00,68.2,51.9,29.81,WSW,245,0.0,1.0,56,0.00,,,0.00,Wunderground v.1.15,2013-10-02 07:21:00,
2013-10-02 00:26:00,68.3,52.0,29.80,ESE,103,1.0,1.0,56,0.00,,,0.00,Wunderground v.1.15,2013-10-02 07:26:00,
2013-10-02 00:31:00,68.4,52.1,29.80,ESE,108,0.0,1.0,56,0.00,,,0.00,Wunderground v.1.15,2013-10-02 07:31:00,
2013-10-02 00:36:00,68.1,49.8,29.80,WSW,252,0.0,1.0,52,0.00,,,0.00,Wunderground v.1.15,2013-10-02 07:36:00,
2013-10-02 00:41:00,67.6,51.3,29.81,West,263,2.0,3.0,56,0.00,,,0.00,Wunderground v.1.15,2013-10-02 07:41:00,
2013-10-02 00:46:00,67.0,50.3,29.80,SE,133,0.0,4.0,55,0.00,,,0.00,Wunderground v.1.15,2013-10-02 07:46:00,
2013-10-02 00:51:00,67.1,49.4,29.80,SE,129,0.0,1.0,53,0.00,,,0.00,Wunderground v.1.15,2013-10-02 07:51:00,
2013-10-02 00:56:00,67.9,48.0,29.80,SE,129,0.0,1.0,49,0.00,,,0.00,Wunderground v.1.15,2013-10-02 07:56:00,
2013-10-02 01:01:00,68.6,47.6,29.81,West,271,0.0,0.0,47,0.00,,,0.00,Wunderground v.1.15,2013-10-02 08:01:00,
2013-10-02 01:06:00,66.1,50.9,29.81,North,357,2.0,6.0,58,0.00,,,0.00,Wunderground v.1.15,2013-10-02 08:06:00,
2013-10-02 01:11:00,65.1,50.4,29.81,NE,56,0.0,2.0,59,0.00,,,0.00,Wunderground v.1.15,2013-10-02 08:11:00,
2013-10-02 01:16:00,65.6,50.4,29.81,NNW,342,2.0,3.0,58,0.00,,,0.00,Wunderground v.1.15,2013-10-02 08:16:00,
2013-10-02 01:21:00,64.3,50.6,29.81,East,79,0.0,2.0,61,0.00,,,0.00,Wunderground v.1.15,2013-10-02 08:21:00,
2013-10-02 01:26:00,64.7,50.0,29.81,East,79,0.0,2.0,59,0.00,,,0.00,Wunderground v.1.15,2013-10-02 08:26:00,
2013-10-02 01:31:00,65.5,49.9,29.81,East,79,0.0,0.0,57,0.00,,,0.00,Wunderground v.1.15,2013-10-02 08:31:00,
2013-10-02 01:36:00,65.9,50.2,29.81,East,79,0.0,1.0,57,0.00,,,0.00,Wunderground v.1.15,2013-10-02 08:36:00,
2013-10-02 01:41:00,65.9,49.3,29.81,East,79,0.0,0.0,55,0.00,,,0.00,Wunderground v.1.15,2013-10-02 08:41:00,
2013-10-02 01:46:00,65.7,50.0,29.81,East,79,1.0,1.0,57,0.00,,,0.00,Wunderground v.1.15,2013-10-02 08:46:00,
2013-10-02 01:51:00,66.4,49.2,29.81,ESE,103,0.0,2.0,54,0.00,,,0.00,Wunderground v.1.15,2013-10-02 08:51:00,
2013-10-02 01:56:00,67.5,48.7,29.81,ESE,106,0.0,2.0,51,0.00,,,0.00,Wunderground v.1.15,2013-10-02 08:56:00,
2013-10-02 02:01:00,68.0,48.7,29.81,ESE,105,0.0,1.0,50,0.00,,,0.00,Wunderground v.1.15,2013-10-02 09:01:00,
2013-10-02 02:06:00,67.1,50.4,29.81,NW,312,0.0,1.0,55,0.00,,,0.00,Wunderground v.1.15,2013-10-02 09:06:00,
2013-10-02 02:11:00,64.9,50.7,29.81,NW,314,0.0,0.0,60,0.00,,,0.00,Wunderground v.1.15,2013-10-02 09:11:00,
2013-10-02 02:16:00,64.1,50.4,29.81,NW,321,0.0,1.0,61,0.00,,,0.00,Wunderground v.1.15,2013-10-02 09:16:00,
2013-10-02 02:21:00,63.4,49.7,29.80,NW,320,0.0,0.0,61,0.00,,,0.00,Wunderground v.1.15,2013-10-02 09:21:00,
2013-10-02 02:26:00,64.2,48.6,29.80,ESE,123,1.0,1.0,57,0.00,,,0.00,Wunderground v.1.15,2013-10-02 09:26:00,
2013-10-02 02:31:00,65.1,48.0,29.80,ESE,115,0.0,1.0,54,0.00,,,0.00,Wunderground v.1.15,2013-10-02 09:31:00,
2013-10-02 02:36:00,65.3,46.7,29.80,ESE,118,0.0,1.0,51,0.00,,,0.00,Wunderground v.1.15,2013-10-02 09:36:00,
2013-10-02 02:41:00,65.0,47.9,29.80,ESE,107,0.0,0.0,54,0.00,,,0.00,Wunderground v.1.15,2013-10-02 09:41:00,
2013-10-02 02:46:00,63.8,49.2,29.80,NNE,19,0.0,1.0,59,0.00,,,0.00,Wunderground v.1.15,2013-10-02 09:46:00,
2013-10-02 02:51:00,63.4,48.4,29.80,ESE,112,1.0,1.0,58,0.00,,,0.00,Wunderground v.1.15,2013-10-02 09:51:00,
2013-10-02 02:56:00,64.1,47.1,29.80,ESE,112,1.0,1.0,54,0.00,,,0.00,Wunderground v.1.15,2013-10-02 09:56:00,
2013-10-02 03:01:00,65.2,47.1,29.80,SE,134,0.0,1.0,52,0.00,,,0.00,Wunderground v.1.15,2013-10-02 10:01:00,
2013-10-02 03:06:00,65.4,46.8,29.80,SE,134,0.0,1.0,51,0.00,,,0.00,Wunderground v.1.15,2013-10-02 10:06:00,
2013-10-02 03:11:00,65.6,47.5,29.80,SE,134,0.0,0.0,52,0.00,,,0.00,Wunderground v.1.15,2013-10-02 10:11:00,
2013-10-02 03:16:00,65.4,47.3,29.80,SE,134,0.0,0.0,52,0.00,,,0.00,Wunderground v.1.15,2013-10-02 10:16:00,
2013-10-02 03:21:00,65.6,47.5,29.80,ESE,116,0.0,0.0,52,0.00,,,0.00,Wunderground v.1.15,2013-10-02 10:21:00,
2013-10-02 03:26:00,65.8,47.7,29.79,ESE,116,0.0,1.0,52,0.00,,,0.00,Wunderground v.1.15,2013-10-02 10:26:00,
2013-10-02 03:31:00,66.0,46.8,29.79,ESE,116,0.0,1.0,50,0.00,,,0.00,Wunderground v.1.15,2013-10-02 10:31:00,
2013-10-02 03:36:00,66.0,47.3,29.79,ESE,115,0.0,1.0,51,0.00,,,0.00,Wunderground v.1.15,2013-10-02 10:36:00,
2013-10-02 03:41:00,66.3,47.6,29.79,ESE,115,0.0,0.0,51,0.00,,,0.00,Wunderground v.1.15,2013-10-02 10:41:00,
2013-10-02 03:46:00,66.3,47.6,29.79,ESE,115,0.0,0.0,51,0.00,,,0.00,Wunderground v.1.15,2013-10-02 10:46:00,
2013-10-02 03:51:00,66.1,46.4,29.79,ESE,115,0.0,0.0,49,0.00,,,0.00,Wunderground v.1.15,2013-10-02 10:51:00,
2013-10-02 03:56:00,66.0,46.3,29.79,SE,126,0.0,0.0,49,0.00,,,0.00,Wunderground v.1.15,2013-10-02 10:56:00,
2013-10-02 04:01:00,65.9,46.2,29.79,WNW,286,0.0,0.0,49,0.00,,,0.00,Wunderground v.1.15,2013-10-02 11:01:00,
2013-10-02 04:06:00,65.0,46.4,29.79,WNW,287,0.0,0.0,51,0.00,,,0.00,Wunderground v.1.15,2013-10-02 11:06:00,
2013-10-02 04:11:00,63.9,46.9,29.80,WNW,287,0.0,0.0,54,0.00,,,0.00,Wunderground v.1.15,2013-10-02 11:11:00,
2013-10-02 04:16:00,62.9,47.0,29.80,ESE,108,0.0,1.0,56,0.00,,,0.00,Wunderground v.1.15,2013-10-02 11:16:00,
2013-10-02 04:21:00,62.7,47.2,29.79,SSW,204,0.0,1.0,57,0.00,,,0.00,Wunderground v.1.15,2013-10-02 11:21:00,
2013-10-02 04:26:00,63.2,47.7,29.79,SSW,204,0.0,1.0,57,0.00,,,0.00,Wunderground v.1.15,2013-10-02 11:26:00,
2013-10-02 04:31:00,63.2,48.2,29.79,SSW,203,0.0,0.0,58,0.00,,,0.00,Wunderground v.1.15,2013-10-02 11:31:00,
2013-10-02 04:36:00,63.1,49.0,29.79,SSW,203,0.0,0.0,60,0.00,,,0.00,Wunderground v.1.15,2013-10-02 11:36:00,
2013-10-02 04:41:00,62.9,50.1,29.80,SSW,203,0.0,0.0,63,0.00,,,0.00,Wunderground v.1.15,2013-10-02 11:41:00,
2013-10-02 04:46:00,62.6,51.9,29.80,SSW,203,0.0,0.0,68,0.00,,,0.00,Wunderground v.1.15,2013-10-02 11:46:00,
2013-10-02 04:51:00,62.4,51.7,29.80,SSW,203,0.0,0.0,68,0.00,,,0.00,Wunderground v.1.15,2013-10-02 11:51:00,
2013-10-02 04:56:00,62.1,51.4,29.80,SSW,203,0.0,0.0,68,0.00,,,0.00,Wunderground v.1.15,2013-10-02 11:56:00,
2013-10-02 05:01:00,61.9,51.6,29.80,SSW,203,0.0,0.0,69,0.00,,,0.00,Wunderground v.1.15,2013-10-02 12:01:00,
2013-10-02 05:05:00,62.0,51.7,29.80,SSW,203,0.0,0.0,69,0.00,,,0.00,Wunderground v.1.15,2013-10-02 12:05:00,
2013-10-02 05:10:00,62.0,52.1,29.81,SSW,204,0.0,0.0,70,0.00,,,0.00,Wunderground v.1.15,2013-10-02 12:10:00,
2013-10-02 05:15:00,61.8,52.7,29.81,SSW,202,0.0,0.0,72,0.00,,,0.00,Wunderground v.1.15,2013-10-02 12:15:00,
2013-10-02 05:20:00,62.2,52.7,29.81,SSW,194,0.0,0.0,71,0.00,,,0.00,Wunderground v.1.15,2013-10-02 12:20:00,
2013-10-02 05:25:00,62.8,52.5,29.81,SSW,194,0.0,0.0,69,0.00,,,0.00,Wunderground v.1.15,2013-10-02 12:25:00,
2013-10-02 05:30:00,63.1,51.6,29.81,SSW,194,0.0,0.0,66,0.00,,,0.00,Wunderground v.1.15,2013-10-02 12:30:00,
2013-10-02 05:35:00,63.4,51.0,29.81,SSW,195,0.0,0.0,64,0.00,,,0.00,Wunderground v.1.15,2013-10-02 12:35:00,
2013-10-02 05:40:00,63.5,51.1,29.81,SSW,195,0.0,0.0,64,0.00,,,0.00,Wunderground v.1.15,2013-10-02 12:40:00,
2013-10-02 05:45:00,63.0,51.0,29.81,SSW,195,0.0,0.0,65,0.00,,,0.00,Wunderground v.1.15,2013-10-02 12:45:00,
2013-10-02 05:50:00,63.0,51.9,29.81,SE,129,0.0,1.0,67,0.00,,,0.00,Wunderground v.1.15,2013-10-02 12:50:00,
2013-10-02 05:55:00,63.2,50.4,29.82,ESE,122,0.0,1.0,63,0.00,,,0.00,Wunderground v.1.15,2013-10-02 12:55:00,
2013-10-02 06:00:00,63.5,49.8,29.82,ESE,122,0.0,0.0,61,0.00,,,0.00,Wunderground v.1.15,2013-10-02 13:00:00,
2013-10-02 06:05:00,63.3,50.1,29.82,ESE,122,0.0,1.0,62,0.00,,,0.00,Wunderground v.1.15,2013-10-02 13:05:00,
2013-10-02 06:10:00,63.0,49.3,29.82,ESE,121,0.0,0.0,61,0.00,,,0.00,Wunderground v.1.15,2013-10-02 13:10:00,
2013-10-02 06:15:00,62.8,48.3,29.82,ESE,121,0.0,0.0,59,0.00,,,0.00,Wunderground v.1.15,2013-10-02 13:15:00,
2013-10-02 06:20:00,63.1,48.1,29.82,ESE,121,0.0,0.0,58,0.00,,,0.00,Wunderground v.1.15,2013-10-02 13:20:00,
2013-10-02 06:25:00,63.2,48.6,29.82,ESE,121,0.0,0.0,59,0.00,,,0.00,Wunderground v.1.15,2013-10-02 13:25:00,
2013-10-02 06:30:00,62.7,48.6,29.82,ESE,121,0.0,0.0,60,0.00,,,0.00,Wunderground v.1.15,2013-10-02 13:30:00,
2013-10-02 06:35:00,62.3,48.2,29.82,ESE,121,0.0,0.0,60,0.00,,,0.00,Wunderground v.1.15,2013-10-02 13:35:00,
2013-10-02 06:40:00,62.1,48.0,29.82,ESE,121,0.0,0.0,60,0.00,,,0.00,Wunderground v.1.15,2013-10-02 13:40:00,
2013-10-02 06:45:00,62.0,47.0,29.82,ESE,121,0.0,1.0,58,0.00,,,0.00,Wunderground v.1.15,2013-10-02 13:45:00,
2013-10-02 06:50:00,62.0,46.6,29.83,ESE,121,0.0,0.0,57,0.00,,,0.00,Wunderground v.1.15,2013-10-02 13:50:00,
2013-10-02 06:55:00,62.0,46.6,29.83,ESE,107,0.0,1.0,57,0.00,,,0.00,Wunderground v.1.15,2013-10-02 13:55:00,
2013-10-02 07:00:00,62.8,45.9,29.83,East,87,0.0,0.0,54,0.00,,,0.00,Wunderground v.1.15,2013-10-02 14:00:00,
2013-10-02 07:05:00,64.6,47.1,29.83,East,87,0.0,0.0,53,0.00,,,0.00,Wunderground v.1.15,2013-10-02 14:05:00,
2013-10-02 07:10:00,66.0,47.9,29.83,East,88,0.0,0.0,52,0.00,,,0.00,Wunderground v.1.15,2013-10-02 14:10:00,
2013-10-02 07:15:00,66.3,46.6,29.83,East,95,0.0,1.0,49,0.00,,,0.00,Wunderground v.1.15,2013-10-02 14:15:00,
2013-10-02 07:20:00,66.9,47.6,29.83,East,94,0.0,0.0,50,0.00,,,0.00,Wunderground v.1.15,2013-10-02 14:20:00,
2013-10-02 07:25:00,67.7,46.7,29.83,East,95,0.0,0.0,47,0.00,,,0.00,Wunderground v.1.15,2013-10-02 14:25:00,
2013-10-02 07:30:00,69.0,46.8,29.83,East,94,0.0,0.0,45,0.00,,,0.00,Wunderground v.1.15,2013-10-02 14:30:00,
2013-10-02 07:35:00,69.9,48.2,29.83,East,95,0.0,0.0,46,0.00,,,0.00,Wunderground v.1.15,2013-10-02 14:35:00,
2013-10-02 07:40:00,69.3,46.4,29.84,East,95,0.0,0.0,44,0.00,,,0.00,Wunderground v.1.15,2013-10-02 14:40:00,
2013-10-02 07:45:00,70.5,46.9,29.84,East,95,0.0,0.0,43,0.00,,,0.00,Wunderground v.1.15,2013-10-02 14:45:00,
2013-10-02 07:50:00,71.2,48.2,29.84,East,95,0.0,0.0,44,0.00,,,0.00,Wunderground v.1.15,2013-10-02 14:50:00,
2013-10-02 07:55:00,71.0,49.7,29.84,East,95,0.0,0.0,47,0.00,,,0.00,Wunderground v.1.15,2013-10-02 14:55:00,
2013-10-02 08:00:00,70.6,52.6,29.84,East,95,0.0,0.0,53,0.00,,,0.00,Wunderground v.1.15,2013-10-02 15:00:00,
2013-10-02 08:05:00,70.2,54.2,29.84,ENE,68,0.0,1.0,57,0.00,,,0.00,Wunderground v.1.15,2013-10-02 15:05:00,
2013-10-02 08:10:00,70.0,52.1,29.85,NNW,336,0.0,0.0,53,0.00,,,0.00,Wunderground v.1.15,2013-10-02 15:10:00,
2013-10-02 08:15:00,70.5,51.0,29.85,NNW,336,0.0,1.0,50,0.00,,,0.00,Wunderground v.1.15,2013-10-02 15:15:00,
2013-10-02 08:20:00,71.0,49.7,29.85,NNW,336,0.0,0.0,47,0.00,,,0.00,Wunderground v.1.15,2013-10-02 15:20:00,
2013-10-02 08:25:00,71.5,51.9,29.85,NNW,336,0.0,1.0,50,0.00,,,0.00,Wunderground v.1.15,2013-10-02 15:25:00,
2013-10-02 08:30:00,72.0,51.8,29.85,NNW,336,0.0,0.0,49,0.00,,,0.00,Wunderground v.1.15,2013-10-02 15:30:00,
2013-10-02 08:33:00,72.8,50.8,29.85,NNW,336,0.0,0.0,46,0.00,,,0.00,Wunderground v.1.15,2013-10-02 15:33:00,
2013-10-02 08:38:00,73.7,49.2,29.85,NNW,335,0.0,1.0,42,0.00,,,0.00,Wunderground v.1.15,2013-10-02 15:38:00,
2013-10-02 08:43:00,73.7,47.9,29.85,NNW,341,1.0,2.0,40,0.00,,,0.00,Wunderground v.1.15,2013-10-02 15:43:00,
2013-10-02 08:48:00,73.7,45.1,29.86,NNW,341,0.0,2.0,36,0.00,,,0.00,Wunderground v.1.15,2013-10-02 15:48:00,
2013-10-02 08:53:00,74.5,45.0,29.86,NNW,341,0.0,1.0,35,0.00,,,0.00,Wunderground v.1.15,2013-10-02 15:53:00,
2013-10-02 08:58:00,75.1,46.3,29.86,NNW,341,0.0,1.0,36,0.00,,,0.00,Wunderground v.1.15,2013-10-02 15:58:00,
2013-10-02 09:03:00,75.1,47.8,29.86,NW,310,0.0,2.0,38,0.00,,,0.00,Wunderground v.1.15,2013-10-02 16:03:00,
2013-10-02 09:08:00,75.3,49.3,29.86,NW,312,0.0,2.0,40,0.00,,,0.00,Wunderground v.1.15,2013-10-02 16:08:00,
2013-10-02 09:12:00,75.6,50.2,29.86,West,273,1.0,1.0,41,0.00,,,0.00,Wunderground v.1.15,2013-10-02 16:12:00,
2013-10-02 09:17:00,76.0,49.2,29.86,West,274,0.0,1.0,39,0.00,,,0.00,Wunderground v.1.15,2013-10-02 16:17:00,
2013-10-02 09:22:00,76.6,49.8,29.86,West,273,1.0,1.0,39,0.00,,,0.00,Wunderground v.1.15,2013-10-02 16:22:00,
2013-10-02 09:27:00,76.7,49.9,29.86,NNW,346,0.0,2.0,39,0.00,,,0.00,Wunderground v.1.15,2013-10-02 16:27:00,
2013-10-02 09:32:00,77.4,50.5,29.86,NNW,342,0.0,1.0,39,0.00,,,0.00,Wunderground v.1.15,2013-10-02 16:32:00,
2013-10-02 09:37:00,77.6,50.7,29.86,NW,308,1.0,2.0,39,0.00,,,0.00,Wunderground v.1.15,2013-10-02 16:37:00,
2013-10-02 09:42:00,77.5,51.3,29.86,NW,325,0.0,2.0,40,0.00,,,0.00,Wunderground v.1.15,2013-10-02 16:42:00,
2013-10-02 09:47:00,78.1,51.8,29.86,North,358,0.0,2.0,40,0.00,,,0.00,Wunderground v.1.15,2013-10-02 16:47:00,
2013-10-02 09:52:00,78.5,52.8,29.86,North,8,2.0,3.0,41,0.00,,,0.00,Wunderground v.1.15,2013-10-02 16:52:00,
2013-10-02 09:57:00,78.9,53.2,29.86,North,1,2.0,3.0,41,0.00,,,0.00,Wunderground v.1.15,2013-10-02 16:57:00,
2013-10-02 10:02:00,79.3,52.9,29.86,ENE,68,1.0,1.0,40,0.00,,,0.00,Wunderground v.1.15,2013-10-02 17:02:00,
2013-10-02 10:07:00,80.1,53.6,29.86,East,81,1.0,3.0,40,0.00,,,0.00,Wunderground v.1.15,2013-10-02 17:07:00,
2013-10-02 10:12:00,80.5,54.0,29.86,NW,314,0.0,2.0,40,0.00,,,0.00,Wunderground v.1.15,2013-10-02 17:12:00,
2013-10-02 10:17:00,81.0,53.7,29.85,NW,314,1.0,3.0,39,0.00,,,0.00,Wunderground v.1.15,2013-10-02 17:17:00,
2013-10-02 10:22:00,81.2,53.9,29.85,North,349,2.0,3.0,39,0.00,,,0.00,Wunderground v.1.15,2013-10-02 17:22:00,
2013-10-02 10:27:00,81.1,51.6,29.85,WNW,303,1.0,4.0,36,0.00,,,0.00,Wunderground v.1.15,2013-10-02 17:27:00,
2013-10-02 10:32:00,81.2,52.4,29.85,SW,228,0.0,4.0,37,0.00,,,0.00,Wunderground v.1.15,2013-10-02 17:32:00,
2013-10-02 10:37:00,81.6,53.5,29.85,WNW,287,1.0,4.0,38,0.00,,,0.00,Wunderground v.1.15,2013-10-02 17:37:00,
2013-10-02 10:42:00,82.1,51.7,29.85,North,350,2.0,3.0,35,0.00,,,0.00,Wunderground v.1.15,2013-10-02 17:42:00,
2013-10-02 10:47:00,82.7,53.8,29.85,North,349,3.0,4.0,37,0.00,,,0.00,Wunderground v.1.15,2013-10-02 17:47:00,
2013-10-02 10:52:00,83.3,52.0,29.84,West,272,3.0,4.0,34,0.00,,,0.00,Wunderground v.1.15,2013-10-02 17:52:00,
2013-10-02 10:57:00,83.6,52.3,29.84,WNW,286,3.0,5.0,34,0.00,,,0.00,Wunderground v.1.15,2013-10-02 17:57:00,
2013-10-02 11:02:00,83.9,51.7,29.84,West,281,2.0,4.0,33,0.00,,,0.00,Wunderground v.1.15,2013-10-02 18:02:00,
2013-10-02 11:07:00,84.2,51.1,29.84,WNW,293,4.0,5.0,32,0.00,,,0.00,Wunderground v.1.15,2013-10-02 18:07:00,
2013-10-02 11:12:00,84.5,52.2,29.84,West,263,4.0,6.0,33,0.00,,,0.00,Wunderground v.1.15,2013-10-02 18:12:00,
2013-10-02 11:17:00,85.0,49.2,29.84,West,273,4.0,7.0,29,0.00,,,0.00,Wunderground v.1.15,2013-10-02 18:17:00,
2013-10-02 11:22:00,85.5,49.6,29.83,West,262,3.0,6.0,29,0.00,,,0.00,Wunderground v.1.15,2013-10-02 18:22:00,
2013-10-02 11:27:00,86.0,50.0,29.84,West,260,6.0,8.0,29,0.00,,,0.00,Wunderground v.1.15,2013-10-02 18:27:00,
2013-10-02 11:32:00,86.4,49.4,29.83,West,267,3.0,9.0,28,0.00,,,0.00,Wunderground v.1.15,2013-10-02 18:32:00,
2013-10-02 11:37:00,86.7,53.3,29.83,WSW,237,3.0,9.0,32,0.00,,,0.00,Wunderground v.1.15,2013-10-02 18:37:00,
2013-10-02 11:42:00,87.0,50.0,29.83,West,262,4.0,8.0,28,0.00,,,0.00,Wunderground v.1.15,2013-10-02 18:42:00,
2013-10-02 11:47:00,87.5,50.4,29.83,West,273,3.0,9.0,28,0.00,,,0.00,Wunderground v.1.15,2013-10-02 18:47:00,
2013-10-02 11:52:00,88.1,48.9,29.83,WSW,253,4.0,7.0,26,0.00,,,0.00,Wunderground v.1.15,2013-10-02 18:52:00,
2013-10-02 11:57:00,88.5,50.3,29.83,SE,141,1.0,8.0,27,0.00,,,0.00,Wunderground v.1.15,2013-10-02 18:57:00,
2013-10-02 12:02:00,89.0,51.7,29.82,West,262,4.0,7.0,28,0.00,,,0.00,Wunderground v.1.15,2013-10-02 19:02:00,
2013-10-02 12:07:00,89.1,49.7,29.82,SW,229,8.0,11.0,26,0.00,,,0.00,Wunderground v.1.15,2013-10-02 19:07:00,
2013-10-02 12:12:00,89.4,50.0,29.82,West,276,6.0,8.0,26,0.00,,,0.00,Wunderground v.1.15,2013-10-02 19:12:00,
2013-10-02 12:17:00,89.7,50.3,29.82,WSW,257,8.0,9.0,26,0.00,,,0.00,Wunderground v.1.15,2013-10-02 19:17:00,
2013-10-02 12:22:00,89.7,49.2,29.81,West,264,7.0,11.0,25,0.00,,,0.00,Wunderground v.1.15,2013-10-02 19:22:00,
2013-10-02 12:27:00,90.1,51.6,29.81,WSW,252,9.0,11.0,27,0.00,,,0.00,Wunderground v.1.15,2013-10-02 19:27:00,
2013-10-02 12:32:00,90.3,50.8,29.80,West,269,8.0,11.0,26,0.00,,,0.00,Wunderground v.1.15,2013-10-02 19:32:00,
2013-10-02 12:37:00,90.4,50.8,29.80,WSW,249,6.0,13.0,26,0.00,,,0.00,Wunderground v.1.15,2013-10-02 19:37:00,
2013-10-02 12:42:00,90.7,48.9,29.80,West,266,3.0,12.0,24,0.00,,,0.00,Wunderground v.1.15,2013-10-02 19:42:00,
2013-10-02 12:47:00,91.5,48.5,29.80,NNE,32,2.0,12.0,23,0.00,,,0.00,Wunderground v.1.15,2013-10-02 19:47:00,
2013-10-02 12:52:00,91.9,47.6,29.79,West,278,1.0,11.0,22,0.00,,,0.00,Wunderground v.1.15,2013-10-02 19:52:00,
2013-10-02 12:57:00,92.5,48.1,29.79,WSW,248,1.0,13.0,22,0.00,,,0.00,Wunderground v.1.15,2013-10-02 19:57:00,
2013-10-02 13:02:00,92.7,49.5,29.79,WSW,244,11.0,15.0,23,0.00,,,0.00,Wunderground v.1.15,2013-10-02 20:02:00,
2013-10-02 13:07:00,92.3,49.1,29.78,WNW,288,7.0,15.0,23,0.00,,,0.00,Wunderground v.1.15,2013-10-02 20:07:00,
2013-10-02 13:12:00,92.4,50.4,29.78,SW,223,4.0,11.0,24,0.00,,,0.00,Wunderground v.1.15,2013-10-02 20:12:00,
2013-10-02 13:17:00,92.7,50.6,29.78,West,263,4.0,12.0,24,0.00,,,0.00,Wunderground v.1.15,2013-10-02 20:17:00,
2013-10-02 13:22:00,92.8,49.6,29.77,WSW,242,6.0,13.0,23,0.00,,,0.00,Wunderground v.1.15,2013-10-02 20:22:00,
2013-10-02 13:27:00,92.7,51.7,29.77,West,272,6.0,14.0,25,0.00,,,0.00,Wunderground v.1.15,2013-10-02 20:27:00,
2013-10-02 13:32:00,92.4,48.0,29.77,West,260,9.0,14.0,22,0.00,,,0.00,Wunderground v.1.15,2013-10-02 20:32:00,
2013-10-02 13:37:00,92.4,50.4,29.77,WSW,257,9.0,14.0,24,0.00,,,0.00,Wunderground v.1.15,2013-10-02 20:37:00,
2013-10-02 13:42:00,92.6,51.6,29.76,WSW,240,5.0,16.0,25,0.00,,,0.00,Wunderground v.1.15,2013-10-02 20:42:00,
2013-10-02 13:47:00,92.3,51.4,29.76,West,278,4.0,16.0,25,0.00,,,0.00,Wunderground v.1.15,2013-10-02 20:47:00,
2013-10-02 13:52:00,92.8,49.6,29.75,SW,219,4.0,10.0,23,0.00,,,0.00,Wunderground v.1.15,2013-10-02 20:52:00,
2013-10-02 13:57:00,93.2,51.0,29.75,West,269,7.0,13.0,24,0.00,,,0.00,Wunderground v.1.15,2013-10-02 20:57:00,
2013-10-02 14:02:00,92.9,50.8,29.75,WSW,257,0.0,9.0,24,0.00,,,0.00,Wunderground v.1.15,2013-10-02 21:02:00,
2013-10-02 14:07:00,94.0,46.8,29.75,East,80,4.0,9.0,20,0.00,,,0.00,Wunderground v.1.15,2013-10-02 21:07:00,
2013-10-02 14:12:00,94.6,46.0,29.75,SSW,200,5.0,11.0,19,0.00,,,0.00,Wunderground v.1.15,2013-10-02 21:12:00,
2013-10-02 14:17:00,94.1,46.9,29.75,WSW,243,4.0,13.0,20,0.00,,,0.00,Wunderground v.1.15,2013-10-02 21:17:00,
2013-10-02 14:22:00,94.2,49.5,29.75,SW,229,8.0,10.0,22,0.00,,,0.00,Wunderground v.1.15,2013-10-02 21:22:00,
2013-10-02 14:27:00,94.0,48.1,29.75,West,269,1.0,12.0,21,0.00,,,0.00,Wunderground v.1.15,2013-10-02 21:27:00,
2013-10-02 14:32:00,94.3,52.0,29.75,SSW,211,3.0,14.0,24,0.00,,,0.00,Wunderground v.1.15,2013-10-02 21:32:00,
2013-10-02 14:37:00,93.6,50.2,29.74,SW,231,11.0,17.0,23,0.00,,,0.00,Wunderground v.1.15,2013-10-02 21:37:00,
2013-10-02 14:42:00,93.6,47.8,29.74,WNW,284,1.0,7.0,21,0.00,,,0.00,Wunderground v.1.15,2013-10-02 21:42:00,
2013-10-02 14:47:00,94.3,48.4,29.74,West,276,1.0,8.0,21,0.00,,,0.00,Wunderground v.1.15,2013-10-02 21:47:00,
2013-10-02 14:52:00,94.7,49.9,29.74,WSW,242,3.0,4.0,22,0.00,,,0.00,Wunderground v.1.15,2013-10-02 21:52:00,
2013-10-02 14:57:00,95.5,49.4,29.74,SW,232,2.0,6.0,21,0.00,,,0.00,Wunderground v.1.15,2013-10-02 21:57:00,
2013-10-02 15:02:00,94.8,51.2,29.73,WSW,245,4.0,11.0,23,0.00,,,0.00,Wunderground v.1.15,2013-10-02 22:02:00,
2013-10-02 15:07:00,94.1,50.6,29.73,SW,233,7.0,14.0,23,0.00,,,0.00,Wunderground v.1.15,2013-10-02 22:07:00,
2013-10-02 15:12:00,93.7,51.5,29.73,West,262,7.0,12.0,24,0.00,,,0.00,Wunderground v.1.15,2013-10-02 22:12:00,
2013-10-02 15:17:00,93.5,52.4,29.73,WNW,298,7.0,13.0,25,0.00,,,0.00,Wunderground v.1.15,2013-10-02 22:17:00,
2013-10-02 15:22:00,93.3,50.0,29.73,WSW,245,3.0,11.0,23,0.00,,,0.00,Wunderground v.1.15,2013-10-02 22:22:00,
2013-10-02 15:27:00,93.8,48.0,29.73,SW,236,5.0,15.0,21,0.00,,,0.00,Wunderground v.1.15,2013-10-02 22:27:00,
2013-10-02 15:32:00,94.2,49.5,29.73,WSW,239,5.0,7.0,22,0.00,,,0.00,Wunderground v.1.15,2013-10-02 22:32:00,
2013-10-02 15:37:00,94.4,49.7,29.73,SW,233,10.0,13.0,22,0.00,,,0.00,Wunderground v.1.15,2013-10-02 22:37:00,
2013-10-02 15:42:00,94.3,49.6,29.72,WSW,249,3.0,13.0,22,0.00,,,0.00,Wunderground v.1.15,2013-10-02 22:42:00,
2013-10-02 15:47:00,94.1,49.4,29.72,WSW,253,6.0,16.0,22,0.00,,,0.00,Wunderground v.1.15,2013-10-02 22:47:00,
2013-10-02 15:52:00,94.1,48.2,29.72,West,263,6.0,13.0,21,0.00,,,0.00,Wunderground v.1.15,2013-10-02 22:52:00,
2013-10-02 15:57:00,94.1,50.6,29.72,SW,228,13.0,13.0,23,0.00,,,0.00,Wunderground v.1.15,2013-10-02 22:57:00,
2013-10-02 16:02:00,93.8,49.2,29.72,West,272,11.0,11.0,22,0.00,,,0.00,Wunderground v.1.15,2013-10-02 23:02:00,
2013-10-02 16:07:00,93.9,50.5,29.72,SW,232,6.0,12.0,23,0.00,,,0.00,Wunderground v.1.15,2013-10-02 23:07:00,
2013-10-02 16:11:00,94.0,50.6,29.72,SW,233,4.0,12.0,23,0.00,,,0.00,Wunderground v.1.15,2013-10-02 23:11:00,
2013-10-02 16:16:00,94.1,49.4,29.71,SSW,200,6.0,13.0,22,0.00,,,0.00,Wunderground v.1.15,2013-10-02 23:16:00,
2013-10-02 16:21:00,94.3,49.6,29.71,West,269,14.0,14.0,22,0.00,,,0.00,Wunderground v.1.15,2013-10-02 23:21:00,
2013-10-02 16:26:00,94.2,49.5,29.71,South,179,2.0,14.0,22,0.00,,,0.00,Wunderground v.1.15,2013-10-02 23:26:00,
2013-10-02 16:31:00,94.4,48.4,29.71,NW,310,2.0,10.0,21,0.00,,,0.00,Wunderground v.1.15,2013-10-02 23:31:00,
2013-10-02 16:36:00,94.4,49.7,29.71,SW,226,11.0,11.0,22,0.00,,,0.00,Wunderground v.1.15,2013-10-02 23:36:00,
2013-10-02 16:41:00,94.0,49.4,29.71,WSW,239,4.0,9.0,22,0.00,,,0.00,Wunderground v.1.15,2013-10-02 23:41:00,
2013-10-02 16:46:00,93.8,48.0,29.71,WSW,240,8.0,14.0,21,0.00,,,0.00,Wunderground v.1.15,2013-10-02 23:46:00,
2013-10-02 16:49:00,93.7,50.3,29.71,SW,225,4.0,14.0,23,0.00,,,0.00,Wunderground v.1.15,2013-10-02 23:49:00,
2013-10-02 16:54:00,93.7,50.3,29.71,SSW,210,5.0,10.0,23,0.00,,,0.00,Wunderground v.1.15,2013-10-02 23:54:00,
2013-10-02 16:59:00,93.6,50.2,29.71,NW,305,6.0,11.0,23,0.00,,,0.00,Wunderground v.1.15,2013-10-02 23:59:00,
2013-10-02 17:04:00,93.5,50.1,29.71,WSW,237,7.0,9.0,23,0.00,,,0.00,Wunderground v.1.15,2013-10-03 00:04:00,
2013-10-02 17:09:00,93.4,50.1,29.71,WSW,239,8.0,11.0,23,0.00,,,0.00,Wunderground v.1.15,2013-10-03 00:09:00,
2013-10-02 17:14:00,93.1,49.8,29.71,SW,219,7.0,13.0,23,0.00,,,0.00,Wunderground v.1.15,2013-10-03 00:14:00,
2013-10-02 17:19:00,93.2,51.0,29.70,WSW,239,8.0,13.0,24,0.00,,,0.00,Wunderground v.1.15,2013-10-03 00:19:00,
2013-10-02 17:24:00,92.9,50.8,29.71,WSW,253,4.0,10.0,24,0.00,,,0.00,Wunderground v.1.15,2013-10-03 00:24:00,
2013-10-02 17:29:00,92.7,49.5,29.71,SW,226,7.0,10.0,23,0.00,,,0.00,Wunderground v.1.15,2013-10-03 00:29:00,
2013-10-02 17:34:00,92.5,50.5,29.71,SSW,200,3.0,10.0,24,0.00,,,0.00,Wunderground v.1.15,2013-10-03 00:34:00,
2013-10-02 17:38:00,92.3,51.4,29.71,South,174,2.0,10.0,25,0.00,,,0.00,Wunderground v.1.15,2013-10-03 00:38:00,
2013-10-02 17:43:00,92.2,50.2,29.71,South,179,4.0,8.0,24,0.00,,,0.00,Wunderground v.1.15,2013-10-03 00:43:00,
2013-10-02 17:48:00,91.8,49.9,29.71,SW,230,3.0,8.0,24,0.00,,,0.00,Wunderground v.1.15,2013-10-03 00:48:00,
2013-10-02 17:53:00,91.6,48.6,29.71,WSW,237,4.0,4.0,23,0.00,,,0.00,Wunderground v.1.15,2013-10-03 00:53:00,
2013-10-02 17:58:00,91.6,48.6,29.70,SSE,153,1.0,4.0,23,0.00,,,0.00,Wunderground v.1.15,2013-10-03 00:58:00,
2013-10-02 18:03:00,91.1,49.3,29.70,WSW,249,0.0,8.0,24,0.00,,,0.00,Wunderground v.1.15,2013-10-03 01:03:00,
2013-10-02 18:08:00,90.7,47.8,29.70,East,89,0.0,8.0,23,0.00,,,0.00,Wunderground v.1.15,2013-10-03 01:08:00,
2013-10-02 18:13:00,90.2,47.4,29.70,West,271,0.0,3.0,23,0.00,,,0.00,Wunderground v.1.15,2013-10-03 01:13:00,
2013-10-02 18:18:00,89.5,45.6,29.70,North,356,0.0,3.0,22,0.00,,,0.00,Wunderground v.1.15,2013-10-03 01:18:00,
2013-10-02 18:23:00,88.8,46.2,29.70,West,273,0.0,1.0,23,0.00,,,0.00,Wunderground v.1.15,2013-10-03 01:23:00,
2013-10-02 18:28:00,88.3,45.8,29.70,SE,141,0.0,2.0,23,0.00,,,0.00,Wunderground v.1.15,2013-10-03 01:28:00,
2013-10-02 18:33:00,87.9,46.6,29.70,SW,215,0.0,1.0,24,0.00,,,0.00,Wunderground v.1.15,2013-10-03 01:33:00,
2013-10-02 18:38:00,87.4,47.3,29.70,WSW,257,0.0,2.0,25,0.00,,,0.00,Wunderground v.1.15,2013-10-03 01:38:00,
2013-10-02 18:43:00,86.9,46.8,29.70,West,262,0.0,0.0,25,0.00,,,0.00,Wunderground v.1.15,2013-10-03 01:43:00,
2013-10-02 18:48:00,86.3,47.4,29.70,West,263,0.0,1.0,26,0.00,,,0.00,Wunderground v.1.15,2013-10-03 01:48:00,
2013-10-02 18:53:00,85.8,46.9,29.70,SE,128,0.0,2.0,26,0.00,,,0.00,Wunderground v.1.15,2013-10-03 01:53:00,
2013-10-02 18:58:00,85.5,46.7,29.70,SW,224,0.0,2.0,26,0.00,,,0.00,Wunderground v.1.15,2013-10-03 01:58:00,
2013-10-02 19:03:00,85.3,46.5,29.70,WSW,255,0.0,1.0,26,0.00,,,0.00,Wunderground v.1.15,2013-10-03 02:03:00,
2013-10-02 19:05:00,85.3,47.5,29.70,West,261,0.0,1.0,27,0.00,,,0.00,Wunderground v.1.15,2013-10-03 02:05:00,
2013-10-02 19:10:00,85.1,46.4,29.71,WSW,239,0.0,0.0,26,0.00,,,0.00,Wunderground v.1.15,2013-10-03 02:10:00,
2013-10-02 19:15:00,85.0,46.3,29.71,South,190,0.0,1.0,26,0.00,,,0.00,Wunderground v.1.15,2013-10-03 02:15:00,
2013-10-02 19:20:00,84.9,46.2,29.71,ESE,115,0.0,0.0,26,0.00,,,0.00,Wunderground v.1.15,2013-10-03 02:20:00,
2013-10-02 19:25:00,84.8,45.1,29.71,SSE,167,0.0,1.0,25,0.00,,,0.00,Wunderground v.1.15,2013-10-03 02:25:00,
2013-10-02 19:30:00,84.6,45.9,29.71,WSW,247,0.0,0.0,26,0.00,,,0.00,Wunderground v.1.15,2013-10-03 02:30:00,
2013-10-02 19:35:00,84.5,44.8,29.71,SW,232,0.0,1.0,25,0.00,,,0.00,Wunderground v.1.15,2013-10-03 02:35:00,
2013-10-02 19:40:00,84.3,45.7,29.72,WNW,290,0.0,0.0,26,0.00,,,0.00,Wunderground v.1.15,2013-10-03 02:40:00,
2013-10-02 19:45:00,83.9,44.3,29.71,WNW,289,0.0,1.0,25,0.00,,,0.00,Wunderground v.1.15,2013-10-03 02:45:00,
2013-10-02 19:50:00,83.6,44.1,29.72,WNW,295,0.0,0.0,25,0.00,,,0.00,Wunderground v.1.15,2013-10-03 02:50:00,
2013-10-02 19:55:00,83.2,44.7,29.72,NW,304,0.0,0.0,26,0.00,,,0.00,Wunderground v.1.15,2013-10-03 02:55:00,
2013-10-02 20:00:00,82.9,44.5,29.72,NW,307,0.0,0.0,26,0.00,,,0.00,Wunderground v.1.15,2013-10-03 03:00:00,
2013-10-02 20:05:00,82.5,44.1,29.72,NW,315,0.0,0.0,26,0.00,,,0.00,Wunderground v.1.15,2013-10-03 03:05:00,
2013-10-02 20:10:00,82.6,44.2,29.72,NW,321,0.0,0.0,26,0.00,,,0.00,Wunderground v.1.15,2013-10-03 03:10:00,
2013-10-02 20:15:00,82.8,44.4,29.72,NW,307,0.0,1.0,26,0.00,,,0.00,Wunderground v.1.15,2013-10-03 03:15:00,
2013-10-02 20:20:00,82.8,44.4,29.72,North,360,0.0,0.0,26,0.00,,,0.00,Wunderground v.1.15,2013-10-03 03:20:00,
2013-10-02 20:25:00,82.8,45.4,29.72,North,359,0.0,1.0,27,0.00,,,0.00,Wunderground v.1.15,2013-10-03 03:25:00,
2013-10-02 20:30:00,82.7,46.3,29.72,North,356,0.0,1.0,28,0.00,,,0.00,Wunderground v.1.15,2013-10-03 03:30:00,
2013-10-02 20:35:00,82.5,47.9,29.73,North,352,0.0,1.0,30,0.00,,,0.00,Wunderground v.1.15,2013-10-03 03:35:00,
2013-10-02 20:40:00,82.3,48.6,29.73,North,352,1.0,1.0,31,0.00,,,0.00,Wunderground v.1.15,2013-10-03 03:40:00,
2013-10-02 20:45:00,82.2,49.4,29.73,North,350,0.0,1.0,32,0.00,,,0.00,Wunderground v.1.15,2013-10-03 03:45:00,
2013-10-02 20:49:00,82.0,50.9,29.73,NNW,333,0.0,1.0,34,0.00,,,0.00,Wunderground v.1.15,2013-10-03 03:49:00,
2013-10-02 20:54:00,81.8,50.7,29.73,NNW,333,0.0,1.0,34,0.00,,,0.00,Wunderground v.1.15,2013-10-03 03:54:00,
2013-10-02 20:59:00,81.6,51.3,29.73,NNW,333,0.0,1.0,35,0.00,,,0.00,Wunderground v.1.15,2013-10-03 03:59:00,
2013-10-02 21:01:00,81.6,51.3,29.73,NNW,333,0.0,0.0,35,0.00,,,0.00,Wunderground v.1.15,2013-10-03 04:01:00,
2013-10-02 21:06:00,81.5,51.2,29.73,NNW,333,0.0,1.0,35,0.00,,,0.00,Wunderground v.1.15,2013-10-03 04:06:00,
2013-10-02 21:11:00,81.4,51.1,29.73,ESE,114,0.0,1.0,35,0.00,,,0.00,Wunderground v.1.15,2013-10-03 04:11:00,
2013-10-02 21:16:00,81.6,50.5,29.73,SE,134,1.0,1.0,34,0.00,,,0.00,Wunderground v.1.15,2013-10-03 04:16:00,
2013-10-02 21:21:00,81.8,50.7,29.73,East,99,0.0,1.0,34,0.00,,,0.00,Wunderground v.1.15,2013-10-03 04:21:00,
2013-10-02 21:26:00,81.7,49.8,29.73,SSE,164,0.0,1.0,33,0.00,,,0.00,Wunderground v.1.15,2013-10-03 04:26:00,
2013-10-02 21:31:00,81.7,49.8,29.73,SE,143,0.0,1.0,33,0.00,,,0.00,Wunderground v.1.15,2013-10-03 04:31:00,
2013-10-02 21:36:00,81.6,50.5,29.73,ESE,105,0.0,1.0,34,0.00,,,0.00,Wunderground v.1.15,2013-10-03 04:36:00,
2013-10-02 21:41:00,80.9,49.9,29.73,ESE,105,0.0,0.0,34,0.00,,,0.00,Wunderground v.1.15,2013-10-03 04:41:00,
2013-10-02 21:46:00,80.5,48.7,29.73,WNW,300,0.0,1.0,33,0.00,,,0.00,Wunderground v.1.15,2013-10-03 04:46:00,
2013-10-02 21:51:00,80.6,47.2,29.73,NNW,330,0.0,1.0,31,0.00,,,0.00,Wunderground v.1.15,2013-10-03 04:51:00,
2013-10-02 21:56:00,80.9,47.4,29.73,North,356,0.0,1.0,31,0.00,,,0.00,Wunderground v.1.15,2013-10-03 04:56:00,
2013-10-02 22:01:00,81.2,46.8,29.73,NE,46,0.0,1.0,30,0.00,,,0.00,Wunderground v.1.15,2013-10-03 05:01:00,
2013-10-02 22:06:00,81.5,46.2,29.74,SW,215,0.0,3.0,29,0.00,,,0.00,Wunderground v.1.15,2013-10-03 05:06:00,
2013-10-02 22:11:00,81.5,46.2,29.74,SW,219,2.0,2.0,29,0.00,,,0.00,Wunderground v.1.15,2013-10-03 05:11:00,
2013-10-02 22:16:00,79.4,49.4,29.74,SSW,204,4.0,8.0,35,0.00,,,0.00,Wunderground v.1.15,2013-10-03 05:16:00,
2013-10-02 22:21:00,78.5,47.8,29.74,SSE,148,2.0,5.0,34,0.00,,,0.00,Wunderground v.1.15,2013-10-03 05:21:00,
2013-10-02 22:26:00,79.0,46.6,29.74,SSW,201,0.0,5.0,32,0.00,,,0.00,Wunderground v.1.15,2013-10-03 05:26:00,
2013-10-02 22:31:00,79.3,46.9,29.75,WNW,302,0.0,3.0,32,0.00,,,0.00,Wunderground v.1.15,2013-10-03 05:31:00,
2013-10-02 22:36:00,79.1,47.5,29.75,ESE,111,0.0,3.0,33,0.00,,,0.00,Wunderground v.1.15,2013-10-03 05:36:00,
2013-10-02 22:41:00,78.8,47.3,29.75,NNW,330,0.0,7.0,33,0.00,,,0.00,Wunderground v.1.15,2013-10-03 05:41:00,
2013-10-02 22:46:00,78.4,47.7,29.75,South,183,1.0,7.0,34,0.00,,,0.00,Wunderground v.1.15,2013-10-03 05:46:00,
2013-10-02 22:51:00,78.3,48.4,29.75,NW,304,0.0,4.0,35,0.00,,,0.00,Wunderground v.1.15,2013-10-03 05:51:00,
2013-10-02 22:56:00,78.1,49.0,29.75,SSW,194,3.0,4.0,36,0.00,,,0.00,Wunderground v.1.15,2013-10-03 05:56:00,
2013-10-02 23:01:00,78.1,49.0,29.75,West,266,1.0,3.0,36,0.00,,,0.00,Wunderground v.1.15,2013-10-03 06:01:00,
2013-10-02 23:06:00,78.5,48.6,29.75,NNE,27,0.0,3.0,35,0.00,,,0.00,Wunderground v.1.15,2013-10-03 06:06:00,
2013-10-02 23:11:00,79.1,48.3,29.74,WNW,296,1.0,3.0,34,0.00,,,0.00,Wunderground v.1.15,2013-10-03 06:11:00,
2013-10-02 23:16:00,79.6,48.0,29.74,WNW,284,1.0,5.0,33,0.00,,,0.00,Wunderground v.1.15,2013-10-03 06:16:00,
2013-10-02 23:21:00,79.7,47.2,29.74,WNW,297,1.0,1.0,32,0.00,,,0.00,Wunderground v.1.15,2013-10-03 06:21:00,
2013-10-02 23:26:00,79.8,47.3,29.74,ESE,111,1.0,2.0,32,0.00,,,0.00,Wunderground v.1.15,2013-10-03 06:26:00,
2013-10-02 23:30:00,79.8,48.1,29.74,WNW,298,1.0,2.0,33,0.00,,,0.00,Wunderground v.1.15,2013-10-03 06:30:00,
2013-10-02 23:35:00,79.8,48.1,29.74,NNW,333,0.0,5.0,33,0.00,,,0.00,Wunderground v.1.15,2013-10-03 06:35:00,
2013-10-02 23:40:00,79.8,48.9,29.74,NNW,340,0.0,1.0,34,0.00,,,0.00,Wunderground v.1.15,2013-10-03 06:40:00,
2013-10-02 23:45:00,79.5,48.7,29.74,NW,307,0.0,1.0,34,0.00,,,0.00,Wunderground v.1.15,2013-10-03 06:45:00,
2013-10-02 23:50:00,79.1,48.3,29.74,East,83,0.0,0.0,34,0.00,,,0.00,Wunderground v.1.15,2013-10-03 06:50:00,
2013-10-02 23:55:00,78.6,48.7,29.74,North,6,0.0,1.0,35,0.00,,,0.00,Wunderground v.1.15,2013-10-03 06:55:00,